Regional Weather Roundup
Issued by NWS

Home | Current Version | Previous Version | Graphics & Text | Print | Product List | Glossary On
Versions: 1 2 3 4 5 6 7 8 9 10 11 12 13 14 15 16 17 18 19 20 21 22 23 24 25 26 27 28 29 30 31 32 33 34 35 36 37 38 39 40 41 42 43 44 45 46 47 48 49 50
000
ASUS43 KIND 272209
RWRIN

WEATHER ROUNDUP FOR INDIANA
NATIONAL WEATHER SERVICE INDIANAPOLIS IN
500 PM EST FRI FEB 27 2015

NOTE: "FAIR" INDICATES FEW OR NO CLOUDS BELOW 12,000 FEET WITH NO
SIGNIFICANT WEATHER AND/OR OBSTRUCTIONS TO VISIBILITY.

* - STATION DOES NOT REPORT WEATHER SUCH AS PRECIPITATION OR FOG.

+ - STATION NOT QUALITY CONTROLLED BY THE NATIONAL WEATHER SERVICE.
    USE DATA WITH CAUTION...ESPECIALLY DEWPOINT AND RELATIVE
    HUMIDITY OBSERVATIONS.

INZ001>003-010>013-019-020-272300-
NORTHWEST INDIANA

CITY           SKY/WX    TMP DP  RH WIND       PRES   REMARKS
GARY /AIRPORT/ SUNNY     18  -8  32 W8        30.60F WCI   7
KNOX *+          N/A     14 -17  24 SW6       30.60S WCI   5
LA PORTE +     SUNNY     17   1  49 S7        30.59S WCI   7
MICHIGAN CITY+ SUNNY     18  -6  35 NW5       30.59F WCI  11
MONTICELLO +   SUNNY     14   0  53 W7        30.62R WCI   4
RENSSELAER +   SUNNY     14   3  62 SW9       30.62S WCI   2
VALPARAISO     SUNNY     14  -2  49 S10       30.59R WCI   1

$$

LMZ046-743>745-272300-
SOUTHERN LAKE MICHIGAN

STATION/POSITION TIME  TEMP WIND        PRES
                       AIR  DIR/SP/G
                 (UTC) (F)  (DEG/KT/KT) (MB)
MICHIGAN CITY    2200   17  250/  4/  5   N/A

$$

INZ004-005-014>016-021>024-272300-
NORTH CENTRAL INDIANA

CITY           SKY/WX    TMP DP  RH WIND       PRES   REMARKS
ELKHART        MOSUNNY   18  -4  38 W8        30.58S WCI   7
GOSHEN         PTSUNNY   16   3  56 W7        30.58R WCI   6
LOGANSPORT +   SUNNY     16   3  57 SW6       30.61S WCI   7
PERU/GRISSOM   SUNNY     16   4  60 W7        30.59R WCI   6
ROCHESTER +    SUNNY     19   5  53 SW7       30.60R WCI  10
SOUTH BEND     SUNNY     18   0  45 W7        30.58S WCI   9
WARSAW +       MOSUNNY   16   3  57 W5        30.58R WCI   9

$$

INZ006>009-017-018-025>027-272300-
NORTHEAST INDIANA

CITY           SKY/WX    TMP DP  RH WIND       PRES   REMARKS
ANGOLA *+      SUNNY     16   1  53 SW9       30.55S WCI   4
AUBURN +       SUNNY     19   0  42 W5        30.58S WCI  13
FORT WAYNE     MOSUNNY   18   0  45 NW3       30.59S
HUNTINGTON +   CLOUDY    18   1  48 E3        30.59R

$$

INZ028-029-035-036-043>045-051>053-272300-
WEST CENTRAL INDIANA

CITY           SKY/WX    TMP DP  RH WIND       PRES   REMARKS
CRAWFORDSVL +  SUNNY     13  -8  38 N6        30.60S WCI   4
GREENCASTLE +  SUNNY     18  -4  38 N6        30.60R WCI   9
LAFAYETTE      SUNNY     15  -2  46 N8        30.62S WCI   4
TERRE HAUTE    SUNNY     17  -2  43 N5        30.63R WCI  10

$$

INZ030>032-037>040-046>048-054>057-064-065-272300-
CENTRAL INDIANA

CITY           SKY/WX    TMP DP  RH WIND       PRES   REMARKS
CP ATTERBURY + SUNNY     21   1  42 N6        30.61R WCI  14
COLUMBUS       MOSUNNY   18  -2  41 NE9       30.61F WCI   6
FRANKFORT +    SUNNY     17   1  51 NW7       30.61S WCI   7
GREENWOOD *+   SUNNY     16  -4  41 NW3       30.60S
INDIANAPOLIS   MOSUNNY   18  -2  41 N3        30.59S
-EAGLE CREEK   SUNNY     15  -4  42 N8        30.60R WCI   4
KOKOMO *+      MOSUNNY   18   7  62 W9        30.60S WCI   6
MARION +       MOSUNNY   15   4  62 W6        30.59F WCI   7
MT COMFORT *+  SUNNY     19 -15  21 N3        30.59S
SHELBYVILLE    SUNNY     20   1  43 CALM      30.59S
ZIONSVILLE +   SUNNY     16  -1  46 NW6       30.60R WCI   7

$$

INZ033-034-041-042-049-050-058-059-272300-
EAST CENTRAL INDIANA

CITY           SKY/WX    TMP DP  RH WIND       PRES   REMARKS
MUNCIE         SUNNY     15   1  53 N6        30.58S WCI   6

$$

INZ060-061-067>069-081>083-085>088-272300-
SOUTHWEST INDIANA

CITY           SKY/WX    TMP DP  RH WIND       PRES   REMARKS
EVANSVILLE     MOSUNNY   24   8  50 N6        30.63R WCI  17
HUNTINGBURG *+ SUNNY     21   7  53 N6        30.62S WCI  14
WASHINGTON +   SUNNY     19   1  45 W5        30.63R WCI  12

$$

INZ062-063-066-070>080-084-089>092-272300-
SOUTH CENTRAL AND SOUTHEAST INDIANA

CITY           SKY/WX    TMP DP  RH WIND       PRES   REMARKS
BLOOMINGTON    SUNNY     22  -1  36 N5        30.57S WCI  16
NORTH VERNON + SUNNY     19   1  45 NE6       30.60S WCI  11
SEYMOUR +      SUNNY     23   5  46 CALM      30.61S

$$



USA.gov is the U.S. government's official web portal to all federal, state and local government web resources and services.